Regional Weather Roundup
Issued by NWS Spokane, WA

Home | Current Version | Previous Version | Text Only | Print | Product List | Glossary On
Versions: 1 2 3 4 5 6 7 8 9 10 11 12 13 14 15 16 17 18 19 20 21 22 23 24 25 26 27 28 29 30 31 32 33 34 35 36 37 38 39 40 41 42 43 44 45 46 47 48 49 50
000
NZUS01 KOTX 280425
RWROTX

Eastern Washington/Northern Idaho Roundup
National Weather Service, Spokane WA
900 PM PDT THU APR 27 2017

Note: "fair" indicated few or no clouds below 12,000 feet with no
significant weather and/or obstructions to visibility.

...Northeast Washington and Northern Idaho Panhandle...

CITY           SKY/WX    TMP DP  RH WIND       PRES   REMARKS
Spokane Intl   MOCLDY    48  31  51 SW9       29.91R
Spokane Downto CLOUDY    45  42  89 N3        29.92R
Coeur d Alene  CLOUDY    44  36  73 SE6       29.93R
Deer Park      CLOUDY    43  38  82 N5        29.92R
Sandpoint      DRIZZLE   41  37  87 SW6       29.92R
Bonners Ferry  CLOUDY    43  37  81 S6        29.89R

...Southeast Washington and southern Idaho Panhandle...

CITY           SKY/WX    TMP DP  RH WIND       PRES   REMARKS
Walla Walla    CLOUDY    51  37  58 S8        29.98R
Pullman/Moscow MOCLDY    43  32  65 SW3       29.96R
Lewiston       PTCLDY    47  33  58 S6        29.96R
Lowell           N/A     40  38  93 CALM      30.03R
Grangeville    CLOUDY    36  34  93 S7        29.96S

...Columbia Basin...

CITY           SKY/WX    TMP DP  RH WIND       PRES   REMARKS
Ephrata        MOCLDY    51  22  31 NW16      29.92R
Moses Lake     MOCLDY    51  25  36 W13       29.94R
Pasco          PTCLDY    49  31  49 NW10      29.98R
Richland       PTCLDY    51  32  48 SW3       30.00R
Hermiston      MOCLDY    50  38  63 W16       30.00R
Pendleton      CLEAR     46  35  65 W20G28    29.99R

...East Slopes Cascades...

CITY           SKY/WX    TMP DP  RH WIND       PRES   REMARKS
The Dalles     PTCLDY    50  36  58 W15       30.10R
Yakima         CLEAR     49  32  52 W8        30.02R
Ellensburg     CLEAR     43  32  65 NW15      30.00R
Stampede Pass  FOG       32  32 100 VRB6      30.03R VSB 1/4 WCI  26
Wenatchee      CLEAR     49  24  37 NW20      29.98R
Omak           PTCLDY    49  33  54 N10       29.93R
Chelan           N/A     52  21  30 W10         N/A
Sunnyside      CLEAR     45  32  59 W9        30.01R

...Southern British Columbia...

CITY           SKY/WX    TMP DP  RH WIND       PRES   REMARKS
Penticton      MOCLDY    52  32  46 N14G21    29.95R
Castlegar      PTCLDY    45  39  81 SE3       29.88R
Cranbrook      MOCLDY    37  37 100 SE6       29.85R
Osoyoos          N/A     54  36  50 NW5         N/A
Creston          N/A     45  37  76 S8          N/A

...Western Montana...

CITY           SKY/WX    TMP DP  RH WIND       PRES   REMARKS
Kalispell      CLOUDY    40  37  89 S5        29.87R
Libby            N/A     43  34  70 CALM      29.88R
Missoula       CLOUDY    41  29  62 CALM      29.92R

...Neighboring Cities...

CITY           SKY/WX    TMP DP  RH WIND       PRES   REMARKS
Seattle        CLOUDY    50  40  68 NE8       30.15R
Portland       PTCLDY    50  38  63 NW10      30.19R
Boise          CLEAR     43  29  57 NW10      29.95R
Great Falls    CLOUDY    39  35  86 CALM      29.85R
Calgary        CLOUDY    37  27  65 E7        29.85R



USA.gov is the U.S. government's official web portal to all federal, state and local government web resources and services.